GFSMA_con_mlcape_102.txt.gz
CAPE
737 559 417 257 238 221 244 126 103 52 20 4 47 50 166 98 27 27 7 0 0 0 4 11 11 23 16 15 13 9 3 1 4 8 7 2 4 7 4 1 1 0 0
646 529 348 308 344 324 290 204 168 96 23 23 86 57 151 98 36 26 0 0 0 0 7 13 20 24 22 18 7 0 5 6 3 5 4 5 5 3 2 0 0 0 0
793 449 343 320 420 317 436 241 98 93 10 48 50 49 100 36 23 4 0 0 1 0 4 24 28 34 27 14 2 1 8 10 7 3 4 4 3 0 0 0 0 0 0
610 553 459 359 331 304 241 137 55 61 19 33 49 44 39 1 2 0 1 0 0 13 9 5 14 25 19 15 7 4 3 9 3 2 1 0 2 0 0 0 0 0 0
520 422 331 283 113 170 205 171 80 0 6 31 34 47 27 0 0 2 2 0 0 7 5 11 16 12 14 15 7 3 8 7 2 4 2 5 0 0 0 0 0 0 0
417 419 277 164 71 174 143 163 58 47 21 27 52 49 4 1 0 7 3 0 0 0 0 1 7 6 4 5 2 3 5 6 4 7 4 5 3 0 0 0 0 0 0
182 167 168 82 89 152 74 106 50 51 38 31 46 12 34 16 5 12 11 18 9 1 6 17 7 0 0 2 2 0 1 5 1 6 5 4 3 0 0 0 1 1 1
236 131 46 27 65 51 56 56 38 14 30 7 15 13 15 35 26 11 3 9 21 9 10 5 12 7 0 0 0 0 0 5 3 6 5 3 1 0 0 0 0 0 0
80 96 28 0 4 13 16 24 21 8 12 2 17 0 1 2 8 11 5 0 13 22 2 0 0 0 0 0 0 0 0 0 1 9 7 2 0 0 0 0 0 0 0
143 34 3 4 2 4 2 9 29 10 7 9 17 11 6 0 0 0 9 4 0 9 13 5 1 0 3 2 0 0 0 0 0 1 13 8 0 0 0 0 1 0 0
0 1 0 2 0 2 4 13 17 31 29 2 7 5 3 7 6 0 0 0 0 0 0 0 4 1 0 0 0 0 0 0 0 0 8 33 104 78 62 37 21 28 35
2 1 1 1 7 2 5 2 2 7 23 13 12 11 3 17 3 0 0 0 0 0 0 0 0 0 0 0 0 1 0 0 0 0 0 0 20 75 151 150 109 98 83
0 1 2 1 1 2 2 3 8 6 8 17 21 21 52 48 50 37 34 14 0 6 0 14 0 0 0 3 2 2 8 8 6 0 0 1 0 0 15 49 102 145 151
3 0 1 4 3 2 1 6 15 3 13 21 28 47 49 22 14 6 12 11 1 13 30 19 56 33 32 20 6 15 16 4 0 0 0 3 0 0 0 0 0 7 23
2 1 0 1 0 3 0 0 0 0 4 19 38 55 55 29 6 6 1 56 20 4 11 32 39 54 54 38 23 26 13 6 2 0 0 0 0 0 0 0 0 0 0
2 1 1 1 0 0 0 0 1 1 12 14 17 30 36 18 0 0 0 26 34 28 8 15 53 69 57 49 46 23 20 19 5 2 0 0 0 0 0 0 0 0 0
2 0 0 1 1 0 1 1 1 1 0 1 0 6 0 0 0 0 0 3 18 15 3 8 14 32 32 36 37 15 36 41 36 10 2 0 0 0 0 0 0 0 0
0 1 2 1 1 1 1 2 1 0 0 0 0 0 0 2 3 1 1 0 0 0 2 0 0 9 2 0 1 3 0 3 0 0 0 0 0 0 0 0 0 0 0
0 0 1 1 2 1 1 1 0 0 0 0 0 0 0 0 0 0 0 3 4 0 0 0 0 0 0 0 0 0 0 0 0 0 0 0 0 0 0 0 0 0 0
8 10 2 0 1 2 2 2 1 1 1 0 0 0 0 0 0 0 0 0 1 0 0 0 0 0 0 0 0 0 0 0 2 23 18 2 0 0 0 0 0 0 0
3 5 7 0 0 0 0 0 1 1 1 0 0 0 0 0 0 0 0 0 0 0 0 0 0 0 0 0 0 6 28 14 22 22 30 56 1 1 5 5 4 5 3
0 0 0 0 1 3 10 0 0 1 0 0 0 3 1 0 0 0 0 0 0 0 0 0 1 8 4 20 0 0 0 1 7 0 0 0 0 4 5 5 4 2 2
4 6 10 8 7 8 5 2 0 0 0 0 0 0 0 1 0 0 0 1 0 2 2 0 1 1 0 1 2 0 2 1 2 0 1 1 0 5 5 3 3 4 4
12 13 13 9 9 3 1 1 1 0 3 8 8 8 6 6 5 2 1 1 5 8 7 5 5 8 6 4 3 2 2 2 2 0 1 0 3 9 2 2 2 2 2
6 7 5 2 4 2 0 2 2 6 11 12 7 6 5 3 2 0 3 1 9 9 6 6 6 5 5 2 0 0 0 0 0 2 1 2 4 2 1 1 0 1 1
1 4 4 2 3 3 1 2 1 1 3 4 3 3 4 2 1 3 1 2 1 7 1 0 0 0 0 0 0 0 0 0 0 0 1 3 1 1 0 0 0 0 1

GFSMA_con_mlcape_105.txt.gz
CAPE
387 197 114 99 50 32 0 0 0 2 0 0 0 3 50 67 19 2 6 0 0 0 1 7 9 12 16 16 5 7 8 7 6 4 4 6 3 4 5 1 0 0 1
417 311 178 152 96 25 10 0 15 10 3 0 1 1 46 45 11 0 1 0 0 0 0 6 13 26 19 16 7 11 7 4 8 13 9 0 3 2 0 0 0 0 0
494 358 203 112 86 77 109 81 47 16 2 1 8 10 63 40 3 4 8 0 0 0 0 6 18 17 13 15 9 4 2 2 2 7 9 4 4 0 0 0 0 0 0
495 326 221 130 128 107 100 60 59 43 13 1 11 22 50 27 9 0 0 0 0 0 0 6 14 11 11 11 7 0 4 5 7 4 5 8 4 0 0 0 0 0 0
648 362 271 187 137 102 126 53 27 34 17 0 25 20 42 3 2 0 0 0 0 0 0 16 15 14 7 6 7 10 10 8 7 5 1 8 6 5 1 0 0 0 0
482 519 383 315 131 76 109 77 24 3 27 6 45 45 39 2 0 0 0 0 0 0 0 6 13 13 11 7 9 9 5 7 1 2 5 5 7 5 4 1 0 0 0
404 369 321 232 130 81 62 93 33 11 1 9 57 33 14 0 0 0 0 0 0 0 0 0 4 7 9 4 8 2 4 9 8 2 2 3 5 3 2 3 3 1 0
248 249 219 146 83 71 48 62 37 11 6 17 28 0 6 3 13 3 1 1 0 0 0 0 0 0 0 0 0 0 0 3 5 11 7 2 1 1 2 0 2 3 1
212 96 37 65 35 42 42 70 34 18 5 14 13 0 0 5 8 15 10 14 8 4 0 0 0 0 0 0 0 0 0 0 1 4 4 2 0 0 1 0 0 0 0
87 110 41 0 0 4 7 16 24 17 4 19 4 0 0 0 0 1 11 1 5 13 0 1 0 0 0 0 0 0 0 0 0 0 10 20 8 16 18 6 3 1 0
89 43 20 0 0 1 2 4 25 12 8 22 14 0 0 0 6 4 0 0 0 0 2 0 0 0 0 0 0 0 0 0 0 0 0 24 101 67 46 37 51 38 29
29 3 0 0 2 2 4 6 34 2 13 13 3 0 0 0 3 15 2 0 0 0 0 0 0 0 0 0 0 0 0 0 0 0 0 0 29 99 166 146 117 113 98
0 0 0 2 2 1 2 3 4 24 6 11 1 0 0 2 3 24 15 5 0 0 0 0 0 0 0 0 0 0 3 0 0 0 0 0 0 0 15 87 185 215 211
0 0 0 2 2 3 5 2 4 2 16 4 2 0 0 0 21 26 25 14 1 0 0 0 3 5 0 0 5 0 0 0 0 0 1 2 1 3 3 2 8 26 59
0 1 2 1 3 2 1 2 4 1 4 5 0 1 1 0 16 11 5 17 0 0 0 14 31 26 13 5 1 3 6 0 0 0 0 0 1 7 8 8 7 3 3
0 0 1 1 3 1 1 0 1 3 3 2 3 3 3 7 8 7 5 2 11 23 5 4 18 12 7 11 23 20 16 11 3 0 0 0 0 2 0 0 2 0 0
0 0 1 1 0 0 0 0 0 1 3 3 0 7 11 16 25 25 16 6 0 1 11 3 2 10 10 19 33 23 19 14 14 7 0 0 4 6 0 0 0 0 0
0 2 1 1 0 0 0 0 0 0 0 0 0 10 12 7 5 9 8 3 0 2 7 0 0 8 12 15 17 25 4 7 15 1 1 0 0 0 0 0 0 0 0
1 1 0 0 1 0 0 0 0 0 0 0 0 0 0 1 0 0 0 0 0 0 2 2 0 0 9 3 2 1 6 0 0 0 0 0 0 0 0 0 0 0 0
4 1 0 0 2 1 0 0 1 0 0 0 1 0 0 0 0 0 0 0 0 0 3 1 0 0 0 0 0 0 0 0 0 0 0 0 0 1 3 3 3 4 1
12 2 0 3 1 1 0 1 1 1 1 1 1 0 0 0 0 0 0 0 0 0 0 0 0 0 0 0 0 0 0 5 0 0 2 4 4 6 7 6 6 4 1
0 0 0 0 0 1 2 0 0 1 1 1 1 1 0 0 0 0 0 0 0 0 0 0 0 0 0 0 0 0 0 0 0 1 0 2 2 9 6 3 3 2 2
11 9 8 7 8 6 3 1 0 0 0 0 0 0 0 1 0 0 1 0 0 0 0 0 0 0 0 2 4 0 1 2 1 0 0 0 5 8 2 2 2 2 2
7 6 6 4 4 3 2 2 1 3 6 8 8 8 7 6 3 3 2 2 8 5 5 5 5 10 6 3 1 2 2 3 1 0 1 0 2 7 1 0 1 2 1
5 6 5 3 3 3 3 2 2 9 9 10 6 5 4 5 1 3 1 3 7 12 7 7 6 4 2 2 1 2 0 0 1 3 1 3 4 3 1 2 1 2 1
3 3 2 3 3 2 1 5 3 6 5 6 6 3 3 2 0 2 4 3 5 3 2 1 1 0 0 0 0 0 0 0 0 1 1 1 1 1 1 0 0 0 0

GFSMA_con_mlcape_108.txt.gz
CAPE
328 272 281 219 135 56 48 20 0 0 0 0 0 8 18 53 41 52 73 70 86 42 8 6 7 7 10 11 9 7 11 7 7 3 6 2 1 2 2 7 5 4 4
201 210 187 173 86 57 4 0 0 0 0 0 0 2 14 49 29 42 41 41 9 0 2 6 7 5 11 14 9 6 10 8 5 6 3 5 5 2 6 6 4 5 5
169 123 119 94 26 13 6 0 0 0 0 0 2 1 4 33 25 27 12 6 0 0 0 3 5 13 11 20 13 9 15 8 3 14 3 3 6 6 4 0 0 0 2
278 176 104 80 34 0 0 0 0 0 0 7 18 20 12 19 18 16 9 5 0 0 0 0 5 21 20 21 9 13 12 3 2 18 12 6 7 4 0 0 0 0 0
346 269 182 96 87 39 0 3 8 1 1 2 10 24 27 10 12 14 3 1 0 0 0 0 11 20 14 12 15 17 9 7 3 13 10 11 7 2 0 0 0 0 0
332 278 172 94 39 13 7 39 64 10 0 12 26 34 42 7 6 16 1 1 0 0 0 0 18 14 14 11 13 13 7 5 3 7 5 5 8 6 2 0 0 0 0
543 291 190 107 40 36 26 17 8 8 3 4 18 29 11 1 0 6 3 1 0 0 0 0 8 15 12 9 11 8 8 8 7 6 4 9 9 5 3 2 0 0 0
395 505 315 156 46 17 3 15 6 1 2 3 2 29 12 1 0 0 0 0 0 0 0 0 0 0 4 6 8 3 8 6 9 12 5 3 0 2 1 0 0 2 0
277 215 205 193 133 91 31 12 5 0 1 2 0 5 3 1 0 0 0 0 0 0 0 0 0 0 0 0 0 0 0 0 4 6 3 1 0 0 2 0 0 0 0
350 201 94 61 46 53 61 1 2 1 0 0 0 3 0 0 0 0 0 0 0 0 0 0 0 0 0 0 0 0 0 0 0 0 6 8 0 0 1 5 6 11 9
159 172 71 27 1 21 3 4 3 3 1 7 2 1 0 0 0 0 0 3 0 2 0 0 0 0 0 0 0 0 0 0 0 0 0 19 52 43 25 37 50 50 32
28 93 51 26 16 2 0 1 3 3 9 26 4 0 0 0 0 0 0 4 0 0 0 0 0 0 0 0 0 0 0 0 0 0 0 0 11 61 100 111 117 123 117
24 45 44 28 0 1 1 2 7 30 42 17 5 2 0 0 0 0 0 5 13 0 0 0 0 0 0 0 0 0 0 0 0 0 0 0 0 3 24 71 146 199 205
31 2 6 0 0 0 0 3 14 15 24 2 4 1 0 0 0 0 0 0 13 13 1 0 0 0 0 0 0 0 6 1 0 0 0 0 0 0 5 6 17 40 73
11 0 0 0 0 0 2 3 9 11 1 5 15 7 0 0 0 0 1 4 10 0 1 0 0 0 0 0 1 4 3 3 0 0 0 0 0 0 0 1 4 3 14
0 0 0 0 0 4 1 3 5 2 5 1 1 2 1 0 0 0 2 8 8 17 7 19 7 20 21 17 9 7 0 1 2 1 0 0 0 0 0 0 2 0 1
0 0 0 0 1 0 1 2 2 7 2 1 4 2 1 0 0 1 0 0 0 6 7 18 4 13 26 23 10 15 5 4 7 4 0 0 0 0 0 0 0 0 0
0 0 0 0 1 1 0 5 1 1 3 1 3 2 3 1 0 0 0 5 9 0 2 0 0 5 4 9 4 15 27 36 30 27 8 8 0 0 0 0 0 0 0
0 0 0 1 0 2 0 0 2 0 0 1 0 0 3 4 1 0 0 9 3 2 2 0 0 0 3 0 0 0 3 13 1 7 6 0 0 0 0 1 1 0 0
0 0 0 0 1 1 0 0 0 1 0 0 0 1 0 1 6 1 1 4 0 0 0 0 1 0 0 0 1 2 1 0 0 0 0 0 0 4 6 4 3 1 1
0 0 0 1 0 0 0 0 1 0 1 0 0 0 0 0 2 1 0 0 0 0 0 0 0 0 0 0 0 0 0 0 0 0 3 7 7 4 6 4 3 3 3
0 0 0 0 0 0 0 0 0 0 0 0 0 0 0 0 0 0 0 0 0 0 0 0 0 0 0 0 0 0 0 3 3 0 1 7 4 6 4 3 2 2 2
8 7 7 6 5 5 3 1 0 0 0 0 0 0 0 0 0 0 1 0 0 0 0 0 0 0 0 0 0 0 0 1 0 4 1 5 4 4 1 2 2 2 2
9 11 10 9 7 9 6 4 0 2 3 5 5 4 3 4 2 2 2 3 8 6 6 2 2 5 7 5 3 2 2 2 5 2 1 0 2 3 0 0 1 1 0
1 2 5 5 9 11 4 4 5 8 8 9 8 6 4 2 1 2 2 5 17 13 4 6 5 6 3 1 1 1 0 1 0 1 1 3 4 4 2 0 0 0 0
4 0 4 3 3 3 3 4 5 6 10 6 5 4 3 0 2 1 1 2 5 9 4 4 2 0 0 0 0 0 1 1 0 0 0 0 3 1 4 0 0 0 0

GFSMA_con_mlcape_114.txt.gz
CAPE
708 609 525 312 211 22 0 0 0 0 0 0 0 0 6 50 75 71 75 135 151 258 251 83 16 12 6 3 5 12 12 16 11 9 8 12 3 4 2 2 1 2 1
642 589 501 383 223 31 0 0 0 0 0 0 0 0 0 6 60 53 65 56 63 87 143 116 14 11 7 16 7 13 12 10 11 13 8 7 3 2 2 3 3 5 0
632 536 439 285 186 31 0 0 0 0 0 0 0 0 0 0 20 59 50 46 58 46 60 61 25 16 16 21 9 9 10 18 16 11 8 6 8 1 2 2 4 2 6
546 462 377 246 115 51 14 0 0 0 0 0 0 0 0 0 0 28 36 31 47 45 56 58 6 7 10 23 29 13 13 9 16 12 7 9 2 2 3 5 5 7 4
453 435 363 216 67 93 35 0 0 0 0 0 0 0 0 0 0 5 11 20 12 30 39 64 10 3 7 25 28 23 20 21 16 14 10 8 3 2 3 4 0 1 3
424 379 241 133 74 77 50 1 0 1 0 0 2 1 0 0 0 0 2 20 18 10 4 35 3 1 12 20 33 20 28 25 14 17 14 10 4 3 3 5 0 0 3
355 320 226 89 80 97 59 3 0 1 3 0 2 1 2 1 0 2 7 16 11 11 18 10 3 0 10 28 24 20 38 35 17 15 21 13 3 3 6 5 3 0 1
335 306 219 94 67 70 32 14 10 14 2 1 0 1 3 1 0 3 7 7 4 0 0 3 0 0 5 27 21 26 23 39 39 18 16 13 7 10 3 5 6 7 3
417 355 234 153 55 57 41 29 34 27 10 1 1 2 11 5 0 1 3 1 1 1 0 0 0 0 6 21 11 15 12 16 18 26 16 13 7 5 4 8 7 6 5
586 396 288 252 143 89 66 62 50 31 11 5 5 4 1 4 9 0 1 1 1 1 0 3 1 0 0 10 10 4 3 0 1 21 23 19 5 5 4 5 2 2 2
509 478 406 253 196 92 85 71 51 28 15 15 21 15 11 5 3 6 1 1 1 1 0 0 1 0 0 0 5 3 0 0 0 0 3 11 12 8 4 4 2 1 0
484 456 401 308 187 170 116 77 56 33 29 9 17 23 22 11 1 1 0 1 0 2 1 0 0 0 0 0 0 0 0 0 0 0 0 0 2 10 10 7 8 5 4
447 549 382 348 283 214 130 73 62 36 41 11 16 28 22 22 5 0 1 1 0 0 0 0 0 0 0 0 0 0 0 0 0 0 0 0 0 0 0 2 20 35 60
443 437 403 261 180 93 93 68 56 33 33 8 16 16 19 14 11 1 0 0 0 0 0 0 1 0 0 0 0 0 0 0 0 0 0 0 0 0 0 0 1 22 61
329 143 199 174 87 58 49 49 47 21 1 3 9 9 17 19 5 0 0 0 0 1 1 0 0 0 0 0 0 0 0 0 0 0 0 0 0 0 0 0 0 0 0
163 97 86 76 54 29 33 26 5 1 2 2 7 7 12 15 0 1 1 0 0 0 1 0 0 0 13 16 8 4 0 0 0 0 0 0 0 0 0 0 0 0 0
87 84 45 20 17 5 1 1 1 1 0 0 2 3 2 5 0 1 1 0 0 0 0 0 0 0 4 9 12 1 0 0 0 0 0 0 0 0 0 0 0 0 0
37 15 23 5 2 2 1 2 0 0 0 0 0 3 3 0 1 2 1 0 0 0 0 0 0 0 0 13 11 0 0 0 0 0 0 0 0 0 0 0 0 0 0
41 5 0 1 2 1 1 1 0 0 0 0 2 5 5 1 1 1 1 1 1 0 0 0 0 1 0 9 10 8 5 0 0 1 2 2 1 0 0 0 1 0 0
1 0 0 1 1 2 2 1 0 0 0 0 3 4 4 0 1 1 1 1 1 0 0 0 1 6 2 0 1 1 4 0 0 0 0 1 1 4 4 3 4 5 4
7 1 0 1 1 1 1 1 0 0 0 0 0 1 3 0 0 0 1 1 1 1 1 3 3 3 2 0 1 0 1 0 1 3 4 6 3 4 4 4 5 4 4
0 4 11 6 10 7 12 0 0 6 0 1 1 0 1 1 0 0 0 0 0 0 1 2 10 4 0 0 0 1 0 0 0 5 9 10 3 6 4 3 2 2 2
3 0 1 2 5 5 7 3 3 0 0 0 0 1 0 0 0 0 0 0 0 0 0 1 8 0 0 0 0 0 0 0 0 1 0 8 3 4 2 3 2 1 0
5 5 3 4 0 1 2 3 6 5 2 3 2 1 1 1 1 1 0 0 5 7 2 0 0 1 1 0 0 0 0 2 6 4 0 3 1 3 1 2 2 1 0
5 5 5 5 4 1 0 1 2 5 10 11 8 7 5 5 6 3 1 1 9 13 4 10 13 15 14 6 3 1 0 0 1 3 1 4 3 2 1 0 1 2 0
4 3 3 3 3 5 3 1 0 0 2 4 4 3 1 3 3 2 1 4 2 9 3 1 1 1 1 0 0 0 1 0 1 4 1 0 4 1 1 1 0 0 0

GFSMA_con_mlcape_117.txt.gz
CAPE
814 834 700 563 345 190 248 112 7 0 0 87 382 404 320 441 405 366 350 125 136 146 184 193 60 10 6 0 2 2 7 10 7 7 7 9 8 6 3 2 2 3 2
834 731 686 507 482 357 52 77 19 0 0 16 118 247 272 324 376 304 187 84 58 82 132 133 101 31 16 8 5 5 7 14 9 12 9 8 7 5 2 3 2 2 1
823 751 608 595 568 265 17 72 20 0 0 0 2 41 51 125 234 194 193 128 57 46 52 89 87 39 17 15 15 3 8 14 13 14 10 11 5 2 2 2 2 3 1
911 716 595 576 547 128 56 73 0 0 1 0 0 0 0 25 99 187 194 146 126 71 49 32 48 26 8 16 14 14 15 14 15 16 8 11 8 3 3 4 3 3 2
941 742 579 416 253 143 37 60 0 0 0 1 0 1 2 7 34 70 68 121 141 120 66 43 49 30 4 6 20 16 15 18 12 14 12 7 5 9 6 3 5 4 5
765 806 571 389 210 151 46 70 16 4 30 54 0 0 3 3 6 4 12 85 147 127 82 44 41 12 7 0 21 12 15 24 18 18 16 12 8 9 5 6 5 1 0
663 786 509 316 147 165 111 71 11 18 2 8 3 1 2 3 2 1 1 2 72 54 31 18 25 39 11 0 13 13 29 37 25 20 21 17 10 7 6 2 6 3 3
543 692 548 333 177 159 97 30 23 4 5 2 0 4 5 1 1 2 8 4 20 40 8 2 9 20 7 5 10 4 36 47 42 17 17 21 9 4 5 4 7 7 0
525 562 512 387 235 203 142 46 28 46 28 3 1 8 5 2 1 2 4 3 18 10 8 9 1 4 27 5 13 4 13 40 57 29 14 14 13 7 5 6 5 7 8
646 565 493 426 280 187 173 58 27 54 19 5 4 7 11 3 14 1 1 4 11 8 8 4 1 0 4 0 0 5 13 13 17 35 38 12 6 9 5 6 6 7 3
621 684 588 471 372 245 249 176 93 62 63 80 4 6 20 20 14 7 3 1 3 3 4 8 4 0 0 0 1 1 2 6 3 15 16 27 18 9 5 3 5 2 5
714 771 671 558 458 379 407 220 144 92 92 61 14 3 5 12 8 10 15 2 0 1 2 2 1 0 0 1 5 2 0 0 0 0 0 7 19 13 12 5 6 6 5
820 858 672 576 542 475 343 272 179 112 55 43 36 10 3 7 21 17 17 16 1 1 1 2 2 1 0 1 15 0 0 0 0 0 0 0 0 0 5 12 13 11 13
919 713 471 561 516 347 267 245 244 141 106 86 58 39 21 17 32 22 9 20 3 1 0 1 2 2 0 0 6 0 0 0 0 0 0 0 0 0 0 0 1 6 11
742 670 484 428 347 329 225 176 254 136 66 73 60 41 32 13 19 25 38 15 9 1 1 2 0 2 0 0 1 4 0 0 0 0 0 0 0 0 0 0 0 0 0
504 381 407 382 327 209 169 126 200 116 53 45 40 25 15 6 12 21 22 8 1 2 1 0 1 0 0 0 0 15 3 0 0 0 0 0 0 0 0 0 0 0 0
284 198 236 290 248 154 100 77 107 64 42 22 1 13 18 4 7 11 10 11 1 1 1 0 0 0 1 0 0 3 18 9 12 0 0 0 0 0 0 0 0 0 0
166 213 135 88 75 89 77 29 36 19 6 5 16 2 1 2 4 2 7 1 1 1 1 0 0 0 0 0 0 1 32 36 24 0 0 0 0 0 0 0 0 0 0
1 13 67 48 42 20 0 1 3 2 1 1 3 9 0 0 3 4 0 1 1 1 1 0 1 0 0 0 0 0 41 40 0 0 0 0 0 0 0 0 0 0 0
3 2 0 1 0 0 0 1 1 1 1 1 0 0 0 3 6 0 1 2 2 1 1 1 0 1 0 0 0 0 37 5 1 1 4 7 2 5 4 4 4 2 2
5 4 4 4 5 5 10 3 0 1 2 2 0 0 1 5 1 1 1 2 2 1 2 2 2 1 2 0 1 3 24 0 4 6 3 8 4 4 5 5 6 6 6
5 4 8 2 2 1 1 1 1 0 1 1 0 0 1 0 0 0 0 0 0 1 2 2 2 1 0 0 2 0 5 0 0 5 4 9 4 7 6 4 2 3 4
4 7 7 6 7 6 5 0 0 1 1 1 0 0 0 0 0 0 0 0 0 0 0 1 2 0 0 0 4 0 7 1 0 1 0 6 3 4 3 2 1 1 1
6 7 7 4 6 4 3 3 0 4 2 5 10 7 4 2 3 1 0 0 3 4 2 1 0 0 0 0 0 1 1 0 3 6 0 3 1 4 1 2 2 3 2
4 4 4 5 6 5 3 2 4 0 0 2 1 3 3 3 6 3 1 0 8 16 11 13 17 21 17 14 7 0 0 0 2 7 1 6 3 3 2 1 2 2 1
3 2 3 3 3 5 7 4 1 4 1 1 1 2 3 3 2 1 1 6 3 9 6 2 1 1 3 4 2 1 3 1 1 3 1 0 5 1 1 1 0 1 0

GFSMA_con_mlcape_120.txt.gz
CAPE
1648 1526 1311 1141 1056 859 859 778 651 482 483 574 640 560 663 737 587 575 494 70 85 102 146 159 158 47 0 0 0 6 5 10 8 8 5 2 6 7 2 2 2 3 3
1527 1505 1305 1229 1012 950 871 881 736 401 319 325 481 534 495 538 528 504 507 333 68 58 106 99 105 110 6 0 2 5 10 12 15 9 6 2 5 4 5 3 4 2 2
1419 1438 1425 1304 1073 975 1054 982 705 524 444 351 358 477 485 548 557 498 436 306 112 61 59 48 76 90 41 7 7 6 11 8 8 16 10 4 4 3 2 4 1 1 4
1366 1276 1273 1056 1202 941 818 949 784 671 554 386 227 258 240 304 338 394 475 359 327 123 50 35 93 56 42 7 7 13 15 14 11 8 6 6 5 2 2 4 4 5 2
1251 1105 1034 1158 1226 921 621 873 828 755 540 431 316 249 202 191 180 121 179 403 386 233 183 32 26 7 18 10 12 6 16 17 15 13 11 7 6 2 3 6 5 3 4
1204 1071 1031 983 856 803 521 523 455 717 617 553 278 170 208 126 194 191 142 143 212 216 215 169 24 16 5 4 26 11 14 13 21 20 17 13 11 4 3 5 1 3 7
1179 1214 986 812 766 727 495 430 491 528 671 573 395 140 40 33 8 30 84 156 79 193 152 174 108 24 8 8 20 25 19 11 12 31 27 15 7 5 4 4 5 5 2
1132 1311 1064 909 602 658 513 428 328 381 414 398 291 151 104 49 4 19 21 55 93 109 122 167 95 30 11 16 31 19 9 15 13 18 27 18 8 2 4 1 5 6 6
1033 1104 1083 799 632 573 559 384 277 330 332 126 231 272 71 4 11 17 17 22 107 133 107 85 46 33 11 17 25 4 5 14 18 17 15 13 12 10 5 4 5 5 5
1272 921 1087 861 726 581 600 412 279 221 315 113 95 325 168 12 12 13 1 5 25 40 84 39 29 11 26 8 5 12 5 0 12 17 25 2 11 17 10 4 5 6 5
1300 1319 1163 1006 934 692 716 571 241 221 303 329 193 90 136 142 35 25 13 8 3 14 108 87 42 52 45 1 5 28 0 0 0 10 33 21 12 20 14 9 7 8 11
1039 1097 1374 1204 993 849 713 576 358 282 259 289 283 184 203 93 86 60 9 7 14 5 5 51 68 38 47 1 0 6 2 0 0 0 8 16 22 16 10 13 8 4 5
1061 1031 1353 1245 1063 904 812 611 530 464 536 435 511 443 339 192 39 2 6 12 24 24 13 8 31 12 5 2 1 0 0 0 0 0 0 3 8 6 19 17 12 9 7
1316 1237 1088 1072 1021 931 795 986 890 724 624 485 417 317 191 63 47 26 6 24 30 3 2 1 3 4 5 2 0 0 0 0 0 0 0 0 0 0 2 7 11 17 16
1288 1153 1073 938 858 867 800 751 838 642 615 574 568 407 246 179 82 97 77 52 18 4 1 5 6 3 3 8 1 0 0 0 0 0 0 0 0 0 0 0 0 0 8
598 1005 845 772 731 679 623 504 506 463 344 321 340 310 218 110 87 85 72 32 19 18 10 0 0 0 2 4 1 0 0 21 0 0 0 0 0 0 0 0 0 0 0
0 568 677 567 505 532 287 193 199 282 294 314 208 267 182 109 54 54 49 26 14 13 8 5 0 0 2 2 2 1 0 18 18 0 0 0 0 0 0 0 0 0 0
3 4 350 484 490 393 287 184 159 147 231 248 320 161 135 62 22 25 22 3 2 7 8 6 0 1 1 3 1 1 0 19 53 12 0 0 0 0 0 0 0 0 0
5 6 1 0 109 144 165 112 59 58 84 138 140 128 93 13 1 7 10 13 32 10 3 2 0 1 1 1 2 2 2 0 3 0 0 0 0 0 0 0 0 0 0
6 6 6 8 7 3 2 1 0 12 25 19 44 65 38 7 1 2 11 56 23 2 2 2 1 1 1 1 1 1 1 0 0 0 1 3 1 0 0 0 0 0 0
3 4 6 4 4 5 7 5 1 1 0 1 6 8 3 1 0 8 32 4 2 2 1 2 2 2 2 1 1 1 1 0 2 3 3 7 6 6 6 4 6 4 4
3 4 5 5 9 5 6 7 1 4 0 0 0 1 1 0 0 7 0 0 0 1 1 2 2 1 1 1 1 1 2 0 0 4 6 6 6 8 8 6 4 4 5
3 5 5 5 6 6 3 4 6 5 4 5 6 4 2 1 0 0 0 0 0 0 0 1 2 1 1 0 0 2 2 0 0 1 1 4 3 6 3 2 1 2 3
3 4 5 3 4 5 4 1 2 4 4 3 2 4 6 7 5 5 2 2 5 7 3 0 0 0 0 0 0 0 0 0 1 5 1 1 2 4 1 2 3 2 1
2 2 2 3 4 4 4 2 1 4 7 7 5 5 3 1 1 3 2 1 6 17 10 15 17 16 19 14 6 0 0 0 0 3 1 3 4 4 2 0 1 1 1
1 1 2 1 2 3 3 4 2 2 0 2 3 3 3 2 2 0 2 4 4 8 3 1 1 1 5 3 3 5 1 0 0 3 2 0 6 2 1 0 2 1 1

GFSMA_con_mlcape_123.txt.gz
CAPE
1856 1585 1619 1385 1265 1211 1082 882 870 893 759 747 818 664 668 612 631 730 759 63 104 31 8 59 67 52 54 6 0 0 1 5 12 8 4 5 1 4 2 7 3 2 4
2063 1838 1564 1516 1300 1282 1204 1015 847 807 840 791 677 650 541 598 565 549 741 169 2 14 82 206 55 40 18 0 0 0 5 10 10 10 5 2 4 5 5 4 4 2 5
2104 1917 1624 1628 1462 1428 1075 991 854 785 724 565 576 575 490 497 451 439 562 689 95 0 16 47 48 36 29 0 0 0 4 8 11 14 9 5 5 5 5 3 2 4 1
1942 1965 1559 1488 1477 1224 1196 1109 1181 927 671 614 585 521 608 502 480 379 460 479 453 221 34 31 17 10 16 22 0 0 2 9 10 14 2 6 6 7 4 2 2 3 2
1756 1831 1606 1629 1867 1435 1387 1290 1238 1074 718 720 555 538 495 416 325 215 231 305 499 437 257 29 19 4 0 1 2 3 0 11 8 14 6 6 7 7 5 3 3 2 3
1715 1657 1620 1435 1535 1551 1126 1280 1268 1203 1052 713 514 418 398 315 287 148 165 176 249 341 371 179 30 17 0 0 0 7 9 5 9 17 15 2 9 6 4 2 3 3 4
1627 1643 1453 1371 1427 1471 1069 1030 1123 1270 999 990 800 410 430 465 365 476 396 333 227 174 243 252 95 62 0 0 0 4 20 30 9 14 21 11 7 8 5 3 6 4 3
1459 1532 1477 1343 1285 1203 1084 949 1049 948 1142 990 870 572 391 225 208 177 165 206 251 191 98 183 162 73 55 0 0 0 7 56 26 7 17 19 12 4 4 5 4 4 3
1304 1267 1379 1237 1160 1098 1030 1062 899 861 955 1035 799 446 181 44 34 392 98 126 77 156 149 108 79 66 60 21 0 0 0 35 52 17 22 13 7 3 1 4 6 4 8
1328 1255 1390 1244 1008 915 948 963 986 850 796 544 458 665 654 209 5 14 77 66 21 13 145 116 15 42 68 46 0 0 0 0 9 20 20 20 1 0 0 5 6 3 7
1499 1185 1193 1246 983 827 839 973 757 892 809 661 353 542 574 658 409 138 20 72 28 5 60 81 45 58 61 60 16 2 0 0 0 5 18 35 18 3 0 2 7 1 7
1317 1665 1179 1206 1107 856 833 898 768 686 729 644 573 543 587 486 251 255 180 141 93 48 12 16 128 55 51 61 45 4 0 0 0 0 6 22 16 12 0 11 9 8 8
1115 1578 1748 1497 1116 1038 919 882 767 673 568 549 476 670 737 505 306 296 156 193 62 33 59 44 3 68 61 103 81 0 0 0 0 0 0 0 20 10 6 13 8 13 12
1204 1364 1352 1524 1639 1143 943 864 753 660 607 510 544 781 781 684 635 425 314 122 30 115 71 16 34 8 50 78 47 2 0 0 0 0 0 0 0 5 1 3 8 13 8
598 1463 1447 1204 1244 1032 954 941 899 1005 907 858 898 880 782 723 595 503 290 184 127 32 70 19 0 9 9 6 1 1 2 0 0 0 0 0 0 0 0 0 0 5 15
2 261 1497 1286 1055 931 963 894 917 1037 858 946 880 758 758 842 680 580 459 293 164 83 28 13 11 17 6 2 1 5 3 0 0 0 0 0 0 0 0 0 0 0 5
4 2 253 973 809 710 546 642 630 667 827 675 531 242 440 770 678 453 304 242 155 112 78 25 2 1 12 3 4 2 3 1 0 0 0 0 0 0 0 0 0 0 0
6 8 4 3 45 303 378 328 385 309 447 553 306 20 254 433 406 315 175 134 159 121 90 5 9 2 2 0 0 2 1 2 2 0 0 0 0 0 0 0 0 0 0
4 4 6 7 11 6 2 1 2 26 242 311 391 434 406 387 375 405 199 125 127 61 33 10 1 7 2 2 2 2 2 2 2 0 0 0 0 0 0 0 0 0 0
3 4 5 6 6 7 8 7 4 1 0 10 117 177 266 279 199 165 116 93 85 52 24 49 26 3 1 1 2 2 1 1 0 1 1 0 0 0 0 0 0 0 0
3 3 3 4 5 6 5 7 4 7 7 3 1 16 51 77 124 103 81 68 69 34 66 9 2 1 2 2 2 1 1 0 0 1 2 3 0 1 0 3 0 0 0
3 3 3 3 6 5 4 3 6 9 8 6 3 3 2 2 2 0 0 0 2 7 22 3 1 1 1 1 1 1 1 1 0 3 0 2 3 2 7 4 6 4 1
3 4 4 4 6 4 4 1 3 3 7 7 7 7 6 6 3 4 2 0 0 1 1 1 1 1 1 0 0 1 1 0 0 1 0 3 1 5 4 2 2 3 3
2 2 3 2 3 3 3 3 2 2 2 3 4 6 6 6 3 0 3 3 8 12 13 6 2 3 4 2 0 0 0 0 0 2 0 0 7 6 1 1 2 1 2
1 0 1 1 1 1 2 2 1 1 1 3 3 4 4 5 2 2 0 1 5 9 4 6 8 7 9 13 10 0 0 0 0 1 2 0 4 5 2 1 2 2 1
0 1 0 1 2 1 1 1 2 2 4 3 1 1 3 6 7 3 2 2 1 1 1 0 0 2 4 7 5 7 4 0 0 0 1 0 8 1 2 2 1 1 2

GFSMA_con_mlcape_126.txt.gz
CAPE
1942 1638 1463 1483 1492 1365 1255 817 855 640 848 720 601 563 548 751 476 705 292 96 169 138 0 18 30 90 38 27 0 0 0 0 6 6 3 4 5 4 3 7 5 4 4
1983 1683 1493 1574 1347 1429 1281 1034 966 952 901 713 551 659 393 520 576 534 534 90 117 113 88 80 110 98 47 32 5 0 0 0 4 7 6 3 4 3 5 4 3 1 2
2121 1735 1654 1663 1498 1232 1224 1137 1032 858 724 787 617 563 416 388 417 439 727 144 36 3 10 84 131 115 106 26 24 0 0 0 0 4 8 2 2 6 4 4 2 1 0
2363 2037 1717 1771 1722 1334 1167 1031 895 791 681 695 546 604 497 389 455 333 400 446 131 5 0 94 94 91 46 7 13 0 0 0 1 5 3 4 4 5 2 1 2 3 1
2150 2015 1977 1762 1703 1411 1267 989 912 854 820 605 550 548 507 564 393 347 300 322 365 205 46 0 30 51 20 1 0 1 2 0 0 3 5 3 5 5 2 2 2 3 1
2037 1670 1900 1895 1747 1476 1090 1151 1050 1046 997 685 612 376 467 401 356 203 174 219 358 234 150 110 0 0 0 0 0 0 2 0 0 4 2 4 5 8 7 2 3 4 4
1801 1522 1509 1971 1896 1691 1508 1387 1236 1203 1193 1074 628 475 357 266 224 259 53 66 114 230 162 115 24 0 0 0 0 0 2 6 9 0 0 0 2 10 7 7 4 5 2
1700 1581 1393 1426 1484 1434 1558 1198 1123 1306 1303 1048 664 628 276 284 317 301 262 304 236 169 109 69 65 0 0 0 0 0 0 5 11 11 14 0 0 2 11 7 5 7 4
1776 1685 1371 1225 1213 1164 1259 966 861 992 1176 969 971 506 133 3 156 231 194 136 144 72 99 84 74 53 9 1 0 0 0 0 14 19 19 28 0 0 7 9 5 4 4
1718 1611 1283 1210 1003 1073 997 1077 791 843 797 1072 967 719 301 688 185 227 323 129 81 86 41 57 57 70 51 20 0 0 0 0 0 33 65 63 16 0 0 0 0 3 5
1587 1476 1198 1211 996 855 927 903 831 831 689 1002 915 712 642 505 645 534 172 147 132 90 63 51 65 57 52 14 11 0 0 0 0 0 25 33 40 22 4 0 0 0 1
1420 1223 991 1179 1056 817 796 795 732 827 643 801 768 535 380 307 454 511 253 51 55 18 17 32 78 69 49 18 3 0 0 0 0 0 0 10 21 25 9 0 0 0 0
1502 1152 970 1016 1010 823 784 744 763 691 680 674 725 581 448 486 545 458 255 136 64 129 27 10 92 77 65 40 24 11 0 0 0 0 0 0 7 17 19 5 6 5 3
1301 1503 939 899 977 957 817 724 682 747 621 584 533 460 471 496 730 482 196 165 116 132 59 39 58 72 114 94 60 25 15 0 0 0 0 0 0 16 27 15 12 5 7
0 330 956 1343 1274 1106 965 787 733 653 629 598 489 417 337 418 656 521 373 251 128 45 34 134 94 30 68 120 97 37 16 6 0 0 0 0 0 2 27 23 0 2 3
0 5 4 458 893 1228 1226 981 916 772 636 582 641 582 508 356 473 372 337 302 243 98 29 80 83 2 10 46 64 30 18 2 0 0 0 0 0 0 1 8 11 8 4
6 2 5 6 1 98 303 923 1085 922 850 926 892 591 227 187 147 0 9 168 298 259 162 86 59 39 3 3 10 0 0 1 2 0 0 0 0 0 0 0 7 0 0
7 7 7 7 7 9 7 2 2 104 683 744 830 800 501 333 13 2 31 101 219 221 156 136 85 60 14 0 6 0 1 3 5 0 0 0 0 0 0 0 0 0 0
9 5 6 9 8 8 5 5 3 2 1 1 113 271 460 284 137 129 243 183 175 69 92 118 43 23 0 0 0 4 1 2 5 0 0 0 0 0 0 0 0 0 0
5 6 5 6 6 7 8 7 6 7 5 4 3 2 1 3 90 290 318 315 226 141 112 68 38 31 9 0 0 1 1 2 0 0 0 0 0 0 0 0 0 0 0
2 3 3 3 3 5 3 6 5 3 6 4 3 2 7 6 3 6 5 9 53 34 40 34 50 17 0 0 0 0 1 0 0 0 0 0 1 1 1 0 0 0 0
2 2 2 3 3 2 3 2 2 5 4 4 6 2 2 2 0 1 4 5 4 0 1 38 2 1 0 0 0 0 1 0 0 2 0 1 5 3 2 1 1 0 0
1 2 2 1 2 2 2 1 1 2 3 4 6 4 3 2 2 0 1 1 3 6 8 2 0 3 1 0 0 0 1 0 0 0 0 0 2 1 4 4 4 3 3
1 1 1 1 2 2 1 0 1 1 1 1 3 3 4 4 4 1 2 2 3 1 3 6 10 12 14 15 8 1 0 0 0 1 1 0 7 4 2 2 2 2 1
1 1 1 0 0 0 1 0 2 1 0 1 2 1 3 3 5 2 1 4 3 3 1 1 0 0 1 0 2 3 0 0 0 0 1 0 7 6 1 1 1 1 1
1 2 2 2 2 0 1 1 0 0 1 2 1 0 0 1 3 3 1 1 0 3 2 0 1 1 2 2 2 3 5 0 0 0 1 0 8 1 2 1 1 1 1

GFSMA_con_mlcape_129.txt.gz
CAPE
1517 1556 1389 1350 1204 1067 838 632 482 300 235 546 763 692 635 406 505 223 96 181 0 0 34 129 27 78 41 14 15 13 0 0 0 3 5 4 9 4 4 7 5 4 12
1414 1529 1386 1305 1254 1140 951 718 583 245 447 723 557 576 454 403 522 462 83 62 107 0 28 72 65 153 101 27 29 9 0 0 0 5 4 3 5 3 3 8 5 3 4
1476 1692 1402 1368 1310 1260 910 972 680 587 598 695 538 552 396 364 389 408 155 42 16 1 0 42 68 207 196 89 29 5 0 0 0 3 5 3 4 3 5 7 3 3 2
1746 1717 1470 1339 1308 1283 1000 1051 813 881 837 696 616 527 438 310 216 327 246 27 0 0 0 0 53 88 92 90 101 46 22 0 0 0 4 3 4 7 4 6 2 5 2
1820 1818 1539 1382 1405 1273 1017 1037 921 777 610 521 643 656 543 418 326 395 438 69 10 0 0 0 1 34 44 80 71 35 1 0 0 0 2 3 3 4 4 4 2 4 3
1970 1978 1670 1438 1502 1384 1030 922 851 663 586 498 620 535 498 450 459 372 302 333 127 32 0 0 0 0 0 0 1 19 3 6 2 0 0 2 1 7 4 3 4 3 5
1974 1913 1835 1705 1588 1378 1074 903 769 675 701 750 675 533 503 474 398 314 261 203 240 124 28 1 0 0 0 0 0 1 3 8 12 8 5 2 2 1 6 7 4 7 4
1616 1898 1732 1763 1655 1397 1058 911 688 742 772 825 730 491 256 287 253 217 113 67 82 114 57 39 15 0 0 0 0 0 2 13 19 7 11 3 4 1 3 7 5 4 5
1383 1696 1611 1581 1564 1398 1158 1011 887 850 970 904 736 519 303 182 204 176 226 173 99 50 73 53 42 11 0 0 0 0 0 0 9 11 8 10 0 6 7 3 6 5 3
1274 1445 1404 1204 1448 1429 1331 1110 990 1010 951 961 796 525 59 36 4 48 145 133 152 136 83 60 46 36 5 0 2 0 0 0 0 23 27 13 2 3 3 7 0 8 6
964 1335 1276 1106 1013 1008 1036 1122 846 502 718 762 937 772 610 231 502 528 138 242 81 71 67 31 22 21 45 23 0 0 0 0 0 0 44 25 34 23 24 9 0 0 0
341 1310 1259 966 856 856 751 724 671 473 440 592 625 760 779 730 341 290 305 211 179 46 13 0 7 31 31 18 19 0 0 0 0 0 1 25 45 36 17 8 4 0 0
0 828 1194 870 788 766 724 699 550 587 541 419 491 630 631 586 485 300 107 175 161 30 15 1 0 6 24 24 11 0 0 0 0 0 0 0 12 52 35 29 13 0 0
0 243 1005 749 821 701 677 607 557 532 589 519 440 462 518 456 359 228 393 290 260 151 23 62 0 0 0 1 1 0 0 0 0 0 0 0 0 10 32 28 15 6 0
0 0 516 731 773 671 603 554 559 576 501 463 448 404 450 506 399 298 391 381 205 119 42 48 41 0 0 0 7 9 1 0 0 0 0 0 0 0 1 10 11 13 17
0 0 4 21 413 422 584 530 518 532 519 456 448 332 346 359 275 325 343 399 80 36 5 35 47 50 39 3 22 36 14 0 0 0 0 0 0 0 0 1 3 11 23
0 0 5 5 11 9 4 42 162 350 626 550 492 376 318 319 328 369 182 39 0 0 0 0 61 71 30 5 0 0 2 0 0 0 0 0 0 0 0 0 0 2 13
6 6 10 4 0 6 11 10 6 4 2 13 34 355 432 445 408 207 21 0 0 0 2 1 68 64 52 18 13 0 2 0 0 0 0 0 0 0 0 0 0 0 0
4 9 6 12 12 7 8 6 6 5 5 5 5 8 9 4 0 1 1 26 61 72 90 120 95 47 54 42 12 0 0 0 0 0 0 0 0 0 0 0 0 0 0
1 2 2 2 6 7 7 8 6 6 7 7 8 9 8 9 12 7 8 2 1 126 230 226 150 56 30 3 16 10 9 1 0 0 0 0 0 0 0 0 0 0 0
0 0 1 2 1 2 2 5 5 5 4 2 2 5 5 7 7 4 5 3 2 0 15 188 121 80 35 2 8 3 1 0 0 0 0 0 0 0 0 1 2 2 0
1 1 1 2 2 2 1 1 0 0 2 6 1 2 0 0 1 1 2 2 1 2 0 0 4 22 18 0 1 0 0 1 0 0 0 0 2 1 2 3 2 3 0
0 1 1 1 1 1 1 1 2 2 3 4 4 3 2 1 0 0 3 3 3 3 2 6 1 2 4 13 10 0 0 0 0 0 0 0 5 1 4 4 2 1 0
1 1 2 1 1 2 2 0 1 1 1 1 2 2 3 4 3 0 0 3 1 3 3 3 3 4 4 5 3 4 3 2 0 0 1 0 8 2 6 4 2 2 1
1 1 1 1 1 0 1 0 1 0 0 0 1 1 1 1 2 3 0 0 0 1 0 2 4 4 3 5 6 0 0 1 2 0 3 0 5 6 5 4 2 1 1
0 0 1 0 0 1 0 1 0 1 0 0 0 0 1 0 0 0 2 5 0 3 1 0 0 0 0 0 2 4 4 0 2 0 1 0 5 4 2 1 0 0 2

GFSMA_con_mlcape_132.txt.gz
CAPE
1485 1396 1286 1214 1298 1171 951 762 591 491 405 300 575 275 133 444 581 234 200 327 355 223 430 417 252 49 27 42 72 39 18 0 0 0 0 8 17 7 7 4 10 7 14
1497 1486 1387 1262 1205 1150 933 663 556 445 298 168 660 602 458 430 400 222 109 202 205 146 104 113 396 238 73 48 55 37 3 0 0 0 0 8 9 10 5 6 4 5 5
1406 1421 1524 1346 1305 1132 927 652 504 391 201 198 564 471 661 384 351 318 141 124 0 0 13 45 253 310 270 114 47 34 11 0 0 0 0 4 4 8 3 9 6 6 4
1361 1352 1364 1410 1254 1123 923 784 550 449 216 375 632 507 518 397 416 331 153 71 73 35 0 0 91 117 223 238 139 55 10 0 1 3 0 0 2 3 3 6 4 5 4
1439 1279 1358 1344 1183 1110 973 823 631 575 420 474 602 535 458 448 376 323 142 105 39 27 0 0 0 29 139 186 107 111 65 13 1 3 2 0 1 5 12 8 7 5 6
1094 1293 1418 1309 1238 1162 983 847 746 577 613 627 675 465 356 467 423 439 288 157 16 15 1 0 0 0 2 23 20 52 116 72 34 11 0 2 0 1 6 5 6 6 7
560 1028 1346 1266 1330 1176 1097 892 753 653 597 450 336 332 361 432 450 380 405 282 65 7 0 0 0 0 0 0 15 26 79 63 20 13 8 2 0 0 0 3 6 8 9
305 598 1043 1266 1355 1263 1045 882 741 638 587 417 389 452 343 376 406 450 339 257 162 108 45 0 0 0 0 0 0 6 11 65 20 10 10 5 0 0 0 0 2 2 5
9 379 726 1186 1223 1237 1049 896 775 644 602 381 374 374 112 63 238 237 182 147 135 153 124 79 10 0 0 0 0 0 0 0 3 27 20 5 0 0 0 0 0 0 1
0 4 401 787 974 1044 1059 919 755 617 557 467 373 359 67 16 82 122 128 139 72 111 86 87 68 22 0 0 0 0 0 0 0 3 28 18 9 2 0 0 0 4 0
0 0 0 207 749 959 1122 979 813 653 629 531 586 436 143 29 14 3 0 145 98 108 73 67 100 91 49 22 0 0 0 0 0 0 0 29 18 6 1 0 0 0 1
0 0 0 0 485 886 1070 1010 848 793 686 664 645 639 503 215 166 228 97 66 129 132 182 96 58 104 66 48 41 15 0 0 0 0 0 0 47 26 4 0 0 0 13
0 0 0 0 0 277 950 989 915 795 724 712 710 626 627 551 331 213 224 194 192 145 40 7 7 21 54 47 15 19 0 0 0 0 0 0 7 45 37 13 0 0 6
0 0 0 0 0 2 820 743 803 702 540 488 421 407 385 503 485 423 376 211 83 36 26 80 3 0 10 28 27 11 12 0 0 0 0 0 0 3 36 20 16 7 0
1 0 0 0 0 0 334 607 564 509 529 357 267 329 369 335 364 314 267 174 114 100 24 5 36 17 1 9 33 13 0 0 0 0 0 0 0 0 0 10 5 5 0
0 0 0 0 0 109 289 559 514 515 427 453 426 366 285 302 272 274 187 112 167 214 58 0 0 0 3 2 15 15 9 8 0 0 0 0 0 0 0 0 0 5 8
3 0 0 0 0 1 7 278 335 425 514 454 424 356 304 333 271 221 209 197 188 87 40 0 0 0 0 0 3 9 19 10 3 1 0 0 0 0 0 0 0 0 0
5 7 5 0 0 1 5 5 7 4 0 1 1 3 1 2 73 7 72 121 116 25 2 0 0 0 0 22 15 9 13 36 40 2 0 0 0 0 0 0 0 0 0
4 3 4 10 1 0 4 3 2 5 7 8 7 10 13 8 3 3 3 0 0 1 4 2 8 13 20 12 16 5 3 8 0 13 0 0 0 0 0 0 0 0 0
4 4 5 3 1 2 3 4 1 0 4 9 8 2 8 13 10 7 9 7 3 0 1 45 34 32 33 14 18 19 2 3 0 0 0 0 0 0 0 0 0 0 0
2 3 2 2 2 1 0 2 0 1 2 4 3 4 2 4 1 3 6 9 3 0 0 0 1 11 51 19 11 1 5 4 1 1 0 0 0 0 0 0 0 0 0
2 3 3 3 3 1 0 1 0 1 0 4 3 3 2 3 0 2 3 3 5 2 1 2 4 1 1 1 1 3 2 2 0 0 0 0 0 0 0 0 0 1 1
1 3 4 2 2 1 2 1 1 1 2 2 4 4 3 3 1 0 2 2 2 5 4 6 5 6 4 9 11 4 2 1 1 0 0 0 0 0 0 1 2 2 2
0 2 1 1 0 1 1 1 1 1 0 1 1 1 2 2 3 2 0 0 0 2 5 5 4 4 5 5 5 4 2 4 0 1 0 0 0 0 6 5 3 2 1
0 0 0 1 1 0 2 0 1 0 0 0 0 2 0 0 1 3 3 1 0 0 0 0 0 1 0 2 3 0 0 0 0 0 2 0 1 2 12 6 4 3 2
0 0 0 0 0 0 2 2 0 1 1 0 0 0 1 0 0 1 2 5 2 0 0 0 0 0 0 0 0 2 3 1 3 0 2 0 1 1 0 7 2 1 1

GFSMA_con_mlcape_135.txt.gz
CAPE
1461 1517 1525 1393 1398 1386 1158 965 737 517 430 382 250 153 171 173 416 333 130 318 419 391 388 533 450 221 58 33 40 63 49 38 28 5 1 2 7 10 5 7 14 28 18
1260 1446 1421 1336 1310 1220 1085 886 654 525 419 344 178 211 181 169 439 347 129 223 314 322 407 409 448 147 47 20 14 44 32 40 7 0 0 0 5 11 4 4 4 10 8
693 1220 1371 1334 1272 1129 1019 808 601 487 366 296 208 476 309 157 460 222 148 105 118 210 184 254 284 161 292 37 0 14 17 8 1 0 0 0 4 9 7 5 4 8 5
392 575 995 1393 1284 1076 994 852 665 518 377 243 65 377 367 361 477 156 146 146 22 11 5 0 26 189 306 179 27 18 15 0 0 0 0 0 0 5 6 4 5 6 8
503 719 807 1123 1378 1205 1039 892 672 506 304 198 56 306 389 369 468 256 143 102 23 2 0 0 14 15 104 152 69 43 70 25 0 0 0 0 0 0 0 2 7 8 3
0 756 571 856 1097 1053 928 850 658 490 359 236 71 315 336 294 414 379 186 88 69 27 8 0 0 0 0 38 47 96 158 110 48 3 0 0 0 0 0 0 3 5 6
0 0 780 571 817 776 886 815 648 492 403 339 122 232 250 203 236 350 345 180 89 24 0 0 0 0 0 0 23 28 51 145 99 52 4 3 0 0 0 0 0 1 4
0 1 199 441 404 742 845 614 578 553 461 304 284 292 176 297 236 278 252 217 116 15 0 0 0 0 0 0 0 5 12 67 134 95 21 5 0 0 0 0 0 0 3
0 0 0 161 106 705 755 551 564 547 507 263 307 152 60 77 167 79 254 198 168 78 9 0 0 0 0 0 0 0 0 0 9 30 31 6 6 0 0 0 0 0 0
0 0 0 0 223 352 666 581 521 522 454 370 189 137 55 19 45 53 27 72 85 137 107 22 0 0 0 0 0 0 0 0 0 0 7 7 8 1 0 0 0 0 0
0 0 0 0 0 0 36 604 532 473 446 410 353 253 130 23 0 0 11 60 27 41 39 90 77 23 0 0 0 0 0 0 0 0 1 11 9 15 5 0 0 0 0
0 0 0 0 0 0 7 15 472 400 434 430 313 340 317 216 87 67 7 19 58 58 54 2 12 47 30 0 0 0 0 0 0 0 0 2 10 25 28 12 1 0 0
1 0 0 0 0 0 0 0 174 381 340 382 338 333 345 296 144 130 83 23 13 36 37 23 32 37 34 32 20 3 0 0 0 0 0 0 0 7 29 29 5 1 0
1 0 0 0 0 0 0 0 16 179 319 350 348 313 373 363 158 149 136 108 65 59 22 89 0 47 59 37 34 29 5 0 0 0 0 0 0 0 0 14 21 18 4
1 23 0 0 0 0 0 0 0 0 362 391 383 385 387 368 350 280 218 246 237 135 42 38 70 0 1 0 0 7 2 5 0 0 0 0 0 0 0 0 0 7 4
0 0 0 0 0 0 0 0 0 0 188 457 357 420 422 355 356 330 281 234 213 195 75 29 18 13 0 0 1 0 7 12 2 0 0 0 0 0 0 0 0 0 6
5 4 2 1 0 1 2 0 3 7 97 332 313 328 339 262 249 267 244 193 177 107 62 102 1 0 0 0 0 1 7 12 17 0 0 0 0 0 0 0 0 0 0
3 5 4 5 4 1 4 7 8 0 0 1 0 21 1 13 143 81 151 155 130 52 67 70 0 0 0 0 0 0 0 0 15 8 0 0 0 0 0 0 0 0 0
1 3 3 6 10 4 0 0 4 9 9 8 13 13 13 6 4 8 3 0 6 43 18 15 42 0 0 0 12 5 14 29 18 11 0 0 0 0 0 0 0 0 0
0 1 2 2 4 5 4 4 0 0 3 1 3 2 8 8 9 5 2 6 3 0 1 2 5 2 13 6 3 8 4 3 4 2 0 0 0 0 0 0 0 0 0
0 0 1 1 2 5 4 6 2 2 0 1 1 1 0 2 3 2 8 5 2 2 4 0 2 2 3 0 0 2 2 0 1 0 0 1 0 0 0 0 0 0 0
0 0 0 1 2 3 4 3 0 1 1 1 3 1 1 0 1 2 3 1 3 3 4 3 4 4 4 9 11 9 4 2 0 1 1 1 0 0 0 0 0 0 0
1 1 1 0 1 1 2 3 2 2 3 3 3 3 2 1 0 1 0 0 1 3 2 5 4 5 6 7 6 3 6 7 5 0 2 0 0 0 0 0 0 0 0
0 2 1 0 1 1 1 1 1 0 1 0 1 0 1 2 2 1 1 0 0 0 2 3 3 3 3 3 4 5 4 5 0 0 1 1 0 0 0 2 4 4 4
0 0 0 0 0 1 1 1 0 1 0 0 1 2 0 1 1 2 1 0 0 0 0 0 0 0 0 2 3 0 0 1 0 0 1 1 0 0 1 3 5 3 4
0 0 0 0 0 0 3 1 0 0 0 0 0 1 2 2 1 1 2 2 0 0 0 0 0 0 0 2 1 2 5 3 4 0 3 1 1 0 0 3 4 2 1